Weather History for Pian Rosa, Italy

Change the Weather History Date:

Friday, October 26, 2012

  Actual Average Record
Temperature  
Mean Temperature 27 °F -  
Max Temperature 30 °F 24 °F 41 °F (2005)
Min Temperature 24 °F 14 °F 8 °F (1998)
Degree Days  
Heating Degree Days 38    
Moisture  
Dew Point 19 °F    
Average Humidity 74    
Maximum Humidity 100    
Minimum Humidity 8    
Precipitation  
Precipitation 0.00 in - - ()
Sea Level Pressure  
Sea Level Pressure 29.84 in    
Wind  
Wind Speed 9 mph ()    
Max Wind Speed 30 mph    
Max Gust Speed -    
Visibility 1.5 miles    
Events Fog , Snow    
Averages and records for this station are not official NWS values.
T = Trace of Precipitation, MM = Missing Value Source: Averaged Metar Reports

Daily Weather History Graph

Daily Weather History Graph

Search for Another Location

Airport:

Trip Planner

Search our weather history database for the weather conditions in past years. The results will help you decide how hot, cold, wet, or windy it might be!

Date:

Astronomy

Oct. 26, 2012 Rise Set
Actual Time 8:01 AM CEST 6:24 PM CEST
Civil Twilight 7:30 AM CEST 6:54 PM CEST
Nautical Twilight 6:55 AM CEST 7:29 PM CEST
Astronomical Twilight 6:21 AM CEST 8:04 PM CEST
Moon 4:39 PM CEST (10/26) 4:32 AM CEST (10/26)
Length of Visible Light 11h 24m
Length of Day
10h 22m
Waxing Gibbous, 89% of the Moon is Illuminated
Oct 26
Waxing Gibbous
Oct 29
Full
Nov 7
Last Quarter
Nov 13
New
Nov 20
First Quarter

Hourly Weather History & Observations

Time (CEST) Temp. Windchill Dew Point Humidity Pressure Visibility Wind Dir Wind Speed Gust Speed Precip Events Conditions
12:55 AM 30.2 °F 21.9 °F 17.6 °F 60% 30.09 in - South 9.2 mph - N/A   Clear
1:55 AM 30.2 °F 24.3 °F 17.6 °F 60% 30.06 in - South 5.8 mph - N/A   Clear
2:00 AM 30 °F - 17 °F 45%  in 6 mi South 5.8 mph - -   Clear
2:55 AM 30.2 °F 21.3 °F 12.2 °F 47% 30.06 in 6.2 mi SE 10.4 mph - N/A   Partly Cloudy
3:55 AM 30.2 °F 24.3 °F 1.4 °F 29% 30.06 in 6.2 mi SE 5.8 mph - N/A   Partly Cloudy
5:00 AM 30 °F - -8 °F 8%  in 6 mi SSE 5.8 mph - -   Scattered Clouds
5:55 AM 30.2 °F 23.4 °F -0.4 °F 27% 29.98 in 6.2 mi SE 6.9 mph - N/A   Scattered Clouds
6:55 AM 28.4 °F 18.5 °F 1.4 °F 31% 29.95 in 0.0 mi South 11.5 mph - N/A Fog Light Freezing Fog
7:55 AM 28.4 °F 18.0 °F 15.8 °F 59% 29.92 in 6.2 mi South 12.7 mph - N/A   Mostly Cloudy
8:00 AM 28 °F - 16 °F 48%  in 31 mi South 12.7 mph - - Fog Light Fog
8:55 AM 26.6 °F 19.1 °F 12.2 °F 55% 29.92 in 0.5 mi South 6.9 mph - N/A Fog Light Freezing Fog
9:55 AM 26.6 °F 17.5 °F 17.6 °F 69% 29.89 in 0.0 mi SSW 9.2 mph - N/A Fog Light Freezing Fog
10:55 AM 24.8 °F 16.9 °F 24.8 °F 100% 29.89 in 0.0 mi SSW 6.9 mph - N/A Fog , Snow Light Snow
11:00 AM 25 °F - 25 °F 100%  in 0 mi SSW 6.9 mph - - Snow Light Snow
11:55 AM 26.6 °F 13.4 °F 26.6 °F 100% 29.89 in 0.0 mi South 18.4 mph - N/A Fog , Snow Light Snow
12:55 PM 26.6 °F 16.8 °F 24.8 °F 93% 29.86 in 0.0 mi South 10.4 mph - N/A Fog , Snow Light Snow
1:55 PM 26.6 °F 20.0 °F 26.6 °F 100% 29.83 in 0.1 mi WSW 5.8 mph - N/A Fog , Snow Light Snow
2:00 PM 27 °F - 27 °F 100%  in 0 mi WSW 5.8 mph - - Snow Light Snow
2:55 PM 26.6 °F 20.0 °F 24.8 °F 93% 29.80 in 0.1 mi South 5.8 mph - N/A Fog , Snow Light Snow
3:55 PM 26.6 °F 20.0 °F 24.8 °F 93% 29.80 in 0.1 mi SSW 5.8 mph - N/A Fog , Snow Light Snow
4:55 PM 28.4 °F - 24.8 °F 86% 29.77 in 0.1 mi Calm Calm - N/A Fog , Snow Light Snow
5:55 PM 26.6 °F - 24.8 °F 93% 29.74 in 0.1 mi Calm Calm - N/A Fog , Snow Light Snow
6:55 PM 26.6 °F 13.8 °F 24.8 °F 93% 29.71 in 0.1 mi SW 17.3 mph - N/A Fog , Snow Light Snow
7:55 PM 26.6 °F 12.7 °F 23.0 °F 86% 29.68 in 0.1 mi SSW 20.7 mph - N/A Fog , Snow Light Snow
8:55 PM 24.8 °F 7.9 °F 24.8 °F 100% 29.65 in 0.1 mi South 29.9 mph - N/A Fog , Snow Light Snow
9:55 PM 24.8 °F 10.3 °F 24.8 °F 100% 29.62 in 0.1 mi South 20.7 mph - N/A Fog , Snow Light Snow
10:55 PM 24.8 °F 10.0 °F 24.8 °F 100% 29.59 in 0.1 mi South 21.9 mph - N/A Fog , Snow Light Snow
11:00 PM 25 °F - 25 °F 98%  in 0 mi South 21.9 mph - - Snow Light Snow
11:55 PM 24.8 °F 12.4 °F 21.2 °F 86% 29.56 in 0.1 mi South 15.0 mph - N/A Fog Light Freezing Fog